[[{"header":{"parameterUnit":"m.s-1","parameterCategory":1,"la1":30.2991,"la2":30.254,"lo1":-89.0895,"lo2":-89.0444,"dy":0.0017,"dx":0.0017,"nx":28,"ny":28,"refTime":"2025-11-26T09:00:00:Z","depth":0,"parameterNumber":2,"parameterNumberName":"U-component_of_WINDS"},"data":[0,0,0,0,0,0,0,0,0,0,0,0,0,0,0,0,0,0,0,0,0,0,0,0,0,0,0,0,0,0,0,0,0,0,0,0,0,0,0,0,0,0,0,0,0,0,0,0,0,0,0,0,0,0,0,0,0,0,0.469,0.469,0,0.4647,0.4647,0.4646,0.4631,0.4631,0.4631,0.4631,0.4585,0.4584,0.4583,0,0,0,0,0,0,0,0,0,0,0,0,0,0.4757,0.4756,0.469,0.4689,0.4689,0.4647,0.4647,0.4646,0.4631,0.4631,0.4631,0.4631,0.4586,0.4584,0.4583,0,0,0,0,0,0,0,0,0,0,0,0,0,0.4723,0.4756,0.469,0.4676,0.4675,0.4647,0.4647,0.4646,0.4631,0.4631,0.4631,0.4632,0.4586,0.4584,0.4582,0.4565,0,0,0.4576,0.4575,0,0,0,0,0,0,0,0,0.4725,0.472,0.4679,0.4677,0.4675,0.4645,0.4654,0.4619,0.4631,0.4647,0.4631,0.4632,0.4605,0.4601,0.4593,0.4563,0.4561,0.4576,0.4575,0.4574,0.4573,0,0,0,0,0,0,0,0.4727,0.4722,0.4673,0.4678,0.4676,0.4672,0.4667,0.4647,0.4625,0.4646,0.4645,0.464,0.4604,0.4595,0.4592,0.456,0.4576,0.4574,0.4573,0.4572,0.4515,0.4515,0,0,0,0,0,0,0.4732,0.4724,0.4674,0.4672,0.4701,0.4671,0.4665,0.4654,0.4625,0.4621,0.464,0.464,0.4598,0.4594,0.459,0.4568,0.4574,0.4572,0.4571,0.4515,0.4515,0.4515,0,0,0,0,0,0,0.4733,0.4728,0.4676,0.4698,0.4691,0.4669,0.4657,0.4653,0.4644,0.4621,0.4617,0.4635,0.4598,0.4593,0.4572,0.4566,0.4571,0.4569,0.4516,0.4515,0.4515,0.4524,0,0,0,0,0,0,0.4735,0.4728,0.4722,0.4698,0.469,0.4659,0.4657,0.4652,0.4641,0.464,0.4615,0.4611,0.4598,0.4575,0.457,0.4563,0.4568,0.4516,0.4515,0.4515,0.4524,0.4524,0.4524,0,0,0,0,0,0.4738,0.4725,0.4721,0.4715,0.4681,0.4659,0.4654,0.464,0.464,0.4633,0.4619,0.4612,0.4568,0.4573,0.4567,0.456,0.4516,0.4516,0.4515,0.4524,0.4524,0.4524,0,0,0,0,0,0,0.4748,0.4722,0.4717,0.4696,0.468,0.4656,0.4647,0.464,0.4623,0.4622,0.4605,0.46,0.458,0.4568,0.4574,0.4542,0.4542,0.454,0.4551,0.455,0.455,0.4553,0.4566,0,0,0,0,0,0.4748,0.4733,0.471,0.4694,0.4686,0.4668,0.4658,0.4649,0.4631,0.4624,0.4607,0.459,0.4572,0.456,0.4543,0.4523,0.4517,0.4515,0.4515,0.4515,0.4513,0.4502,0.4501,0.4512,0.4512,0.4512,0,0,0.4747,0.4731,0.4722,0.4696,0.4682,0.4666,0.4662,0.4646,0.4634,0.4621,0.46,0.4588,0.4567,0.4546,0.4536,0.4536,0.4509,0.4514,0.4514,0.4512,0.4501,0.45,0.4499,0.4512,0.4512,0.4512,0,0,0.4738,0.4725,0.471,0.4697,0.4676,0.4665,0.4661,0.4639,0.463,0.461,0.46,0.4585,0.4555,0.4541,0.453,0.4517,0.451,0.4512,0.4511,0.45,0.4499,0.4498,0.4494,0.4493,0.4511,0.4511,0.4511,0,0.474,0.4716,0.4703,0.4687,0.4676,0.4665,0.465,0.4638,0.4612,0.4605,0.4604,0.4567,0.4552,0.4528,0.4526,0.4517,0.4512,0.4514,0.4501,0.45,0.4499,0.4494,0.4493,0.4511,0.4511,0.4511,0.4511,0,0.4719,0.4703,0.4694,0.4671,0.4659,0.4643,0.4628,0.4617,0.4609,0.4597,0.4577,0.4559,0.4538,0.4532,0.4524,0.4507,0.4507,0.4504,0.4503,0.4498,0.4494,0.4492,0.4511,0.4511,0.4511,0.4511,0,0,0.4714,0.4685,0.4682,0.4672,0.4649,0.4636,0.4621,0.4601,0.4592,0.4576,0.4562,0.4538,0.4535,0.4522,0.4513,0.4504,0.4495,0.4501,0.4501,0.4501,0.4476,0.4478,0.4477,0.4491,0.449,0.449,0.4478,0,0.4702,0.4674,0.4662,0.464,0.4625,0.4615,0.4602,0.4586,0.4575,0.4561,0.4548,0.4531,0.4529,0.4522,0.4512,0.4498,0.449,0.4499,0.4477,0.4477,0.4482,0.4474,0.4476,0.4465,0.4476,0.4476,0.4476,0,0.4683,0.4668,0.4644,0.4625,0.4618,0.4606,0.4588,0.4574,0.4557,0.4549,0.4536,0.4527,0.4511,0.4512,0.4489,0.4495,0.4486,0.4478,0.4477,0.4474,0.4475,0.4471,0.4462,0.446,0.4473,0.4473,0.4473,0,0.4682,0.4655,0.4637,0.4629,0.4606,0.4598,0.4588,0.4571,0.456,0.4544,0.4537,0.4519,0.4509,0.4495,0.4482,0.4484,0.446,0.4459,0.4453,0.4453,0.4447,0.4448,0.4437,0.4442,0.4442,0.4442,0.4442,0,0.4669,0.4655,0.4637,0.4626,0.461,0.4597,0.4581,0.457,0.4556,0.4542,0.4533,0.452,0.4504,0.4489,0.4479,0.4461,0.4457,0.445,0.4448,0.4451,0.4452,0.4444,0.4444,0.4442,0.4442,0.4442,0.4442,0,0.4664,0.4651,0.4632,0.4612,0.4607,0.4596,0.4578,0.4568,0.4557,0.454,0.4536,0.4519,0.4501,0.4487,0.4464,0.4457,0.4439,0.4436,0.4445,0.4443,0.4437,0.4438,0.442,0.4417,0.4426,0.4426,0.4425,0,0.4656,0.4645,0.4625,0.4616,0.4606,0.4591,0.4581,0.4568,0.4557,0.4538,0.4529,0.4512,0.4497,0.447,0.4455,0.4438,0.4434,0.4429,0.4431,0.4435,0.4433,0.4434,0.4433,0.4428,0.4428,0.4428,0.4428,0,0.4644,0.4639,0.4624,0.4608,0.4596,0.4582,0.4568,0.4561,0.4546,0.4535,0.4517,0.4506,0.4484,0.4466,0.4447,0.4437,0.443,0.4428,0.4426,0.4428,0.4434,0.4431,0.4444,0.4428,0.4428,0.4428,0.4428,0.4428,0.4637,0.4627,0.4612,0.4596,0.4585,0.4572,0.4561,0.455,0.4536,0.4517,0.451,0.4493,0.4477,0.4451,0.444,0.4426,0.4425,0.4422,0.4421,0.442,0.442,0.4437,0.4423,0.4423,0.4423,0.4423,0.4423,0,0.4624,0.4614,0.46,0.4582,0.457,0.4566,0.4551,0.4541,0.4525,0.4511,0.4497,0.4478,0.4462,0.4446,0.4429,0.4421,0.4417,0.4417,0.4417,0.4414,0.4422,0.4426,0.442,0.442,0.442,0.442,0.442,0.442,0.4616,0.4599,0.4593,0.457,0.456,0.4543,0.4535,0.4524,0.4513,0.4492,0.4478,0.4469,0.4454,0.4436,0.4421,0.4417,0.4411,0.4411,0.4406,0.4413,0.4414,0.4414,0.4418,0.441,0.441,0.4399,0.4399,0.4399]},{"header":{"parameterUnit":"m.s-1","parameterCategory":1,"la1":30.2991,"la2":30.254,"lo1":-89.0895,"lo2":-89.0444,"dy":0.0017,"dx":0.0017,"nx":28,"ny":28,"refTime":"2025-11-26T09:00:00:Z","depth":0,"parameterNumber":3,"parameterNumberName":"V-component_of_WINDS"},"data":[0,0,0,0,0,0,0,0,0,0,0,0,0,0,0,0,0,0,0,0,0,0,0,0,0,0,0,0,0,0,0,0,0,0,0,0,0,0,0,0,0,0,0,0,0,0,0,0,0,0,0,0,0,0,0,0,0,0,-5.7759,-5.776,0,-5.7833,-5.7834,-5.7835,-5.7782,-5.7779,-5.7777,-5.7775,-5.7845,-5.7849,-5.7853,0,0,0,0,0,0,0,0,0,0,0,0,0,-5.7567,-5.7571,-5.7759,-5.776,-5.7761,-5.7833,-5.7834,-5.7835,-5.7782,-5.7779,-5.7776,-5.7774,-5.7844,-5.7849,-5.7853,0,0,0,0,0,0,0,0,0,0,0,0,0,-5.7646,-5.7572,-5.7759,-5.7743,-5.7742,-5.7833,-5.7834,-5.7835,-5.7783,-5.7779,-5.7775,-5.7772,-5.7842,-5.7848,-5.7854,-5.7962,0,0,-5.7873,-5.7875,0,0,0,0,0,0,0,0,-5.7642,-5.7654,-5.7744,-5.7744,-5.7744,-5.7795,-5.7792,-5.7878,-5.7783,-5.7767,-5.7775,-5.777,-5.7831,-5.7838,-5.7859,-5.7965,-5.7968,-5.7873,-5.7877,-5.788,-5.7881,0,0,0,0,0,0,0,-5.7637,-5.765,-5.7788,-5.7746,-5.7745,-5.7731,-5.7738,-5.7808,-5.7818,-5.7768,-5.7765,-5.7774,-5.783,-5.7853,-5.786,-5.7969,-5.7873,-5.7878,-5.7882,-5.7885,-5.8169,-5.8173,0,0,0,0,0,0,-5.7633,-5.7646,-5.7786,-5.779,-5.7683,-5.7737,-5.7746,-5.7782,-5.7817,-5.7819,-5.7777,-5.7772,-5.7845,-5.7853,-5.7863,-5.7992,-5.7879,-5.7885,-5.7889,-5.8165,-5.817,-5.8174,0,0,0,0,0,0,-5.7629,-5.7646,-5.7783,-5.7717,-5.7733,-5.7744,-5.7785,-5.7785,-5.7808,-5.7824,-5.7825,-5.78,-5.7842,-5.7854,-5.7938,-5.7994,-5.7888,-5.7893,-5.8161,-5.8167,-5.8172,-5.8252,0,0,0,0,0,0,-5.7624,-5.7645,-5.7687,-5.7719,-5.7737,-5.7859,-5.7789,-5.7789,-5.782,-5.7813,-5.7845,-5.7847,-5.784,-5.793,-5.7945,-5.8001,-5.7898,-5.8156,-5.8164,-5.817,-5.8245,-5.826,-5.8274,0,0,0,0,0,-5.7617,-5.7705,-5.769,-5.7707,-5.779,-5.7862,-5.7873,-5.7865,-5.7824,-5.7866,-5.7876,-5.7846,-5.7986,-5.7939,-5.7955,-5.8014,-5.8152,-5.8161,-5.817,-5.8238,-5.8257,-5.8273,0,0,0,0,0,0,-5.7677,-5.7709,-5.7692,-5.7793,-5.7826,-5.7853,-5.7906,-5.7885,-5.7928,-5.792,-5.7906,-5.7914,-5.8003,-5.8016,-5.7964,-5.8121,-5.8062,-5.8075,-5.8109,-5.8127,-5.8141,-5.8136,-5.7903,0,0,0,0,0,-5.7703,-5.776,-5.7784,-5.7871,-5.7888,-5.7895,-5.7925,-5.7917,-5.7949,-5.7962,-5.7978,-5.801,-5.8061,-5.8094,-5.8142,-5.8246,-5.8253,-5.8295,-5.8309,-5.8321,-5.8332,-5.8389,-5.8408,-5.8203,-5.8203,-5.8203,0,0,-5.7755,-5.7779,-5.7816,-5.7883,-5.7908,-5.7967,-5.7906,-5.797,-5.8013,-5.7971,-5.8053,-5.8066,-5.81,-5.8196,-5.8238,-5.8209,-5.839,-5.8332,-5.8341,-5.8346,-5.84,-5.842,-5.8437,-5.8209,-5.8208,-5.8207,0,0,-5.7881,-5.7905,-5.7981,-5.8007,-5.8046,-5.8049,-5.8068,-5.8099,-5.8107,-5.8189,-5.8159,-5.8209,-5.8297,-5.8324,-5.8348,-5.8486,-5.846,-5.8502,-5.8576,-5.8633,-5.8649,-5.8663,-5.8713,-5.8731,-5.8512,-5.8513,-5.8513,0,-5.794,-5.8029,-5.8021,-5.8089,-5.812,-5.8087,-5.8163,-5.8188,-5.824,-5.8261,-5.8228,-5.834,-5.836,-5.8462,-5.8496,-5.8516,-5.8537,-5.8498,-5.8647,-5.8662,-5.8675,-5.8722,-5.8741,-5.8517,-5.8517,-5.8516,-5.8516,0,-5.8101,-5.8163,-5.8219,-5.8273,-5.831,-5.8381,-5.8383,-5.8421,-5.841,-5.8417,-5.8502,-5.8525,-5.8578,-5.8601,-5.859,-5.8702,-5.8683,-5.8649,-5.859,-5.8699,-5.8744,-5.8762,-5.8525,-5.8523,-5.8521,-5.852,0,0,-5.8265,-5.8316,-5.8337,-5.8361,-5.8402,-5.8449,-5.8519,-5.8573,-5.8606,-5.8643,-5.8701,-5.8777,-5.8747,-5.8775,-5.8766,-5.8816,-5.8925,-5.8776,-5.8776,-5.8803,-5.9051,-5.9076,-5.9098,-5.8907,-5.8911,-5.8914,-5.9048,0,-5.8394,-5.8518,-5.8514,-5.863,-5.8687,-5.8658,-5.8718,-5.875,-5.8759,-5.8807,-5.8816,-5.8871,-5.8826,-5.8843,-5.8891,-5.8901,-5.8974,-5.8891,-5.8961,-5.8963,-5.8954,-5.9121,-5.9148,-5.9273,-5.9065,-5.9068,-5.907,0,-5.856,-5.8606,-5.8728,-5.8762,-5.8786,-5.8841,-5.8891,-5.8939,-5.8973,-5.8976,-5.9009,-5.8993,-5.9063,-5.9003,-5.9099,-5.9043,-5.9071,-5.908,-5.9085,-5.9091,-5.9024,-5.9132,-5.9313,-5.9333,-5.9097,-5.9095,-5.9093,0,-5.8669,-5.8761,-5.8846,-5.8868,-5.891,-5.895,-5.8968,-5.9,-5.9033,-5.9076,-5.9097,-5.9147,-5.9174,-5.9212,-5.921,-5.9166,-5.9308,-5.9247,-5.9311,-5.9312,-5.9343,-5.9341,-5.9532,-5.936,-5.936,-5.9359,-5.9359,0,-5.8813,-5.8889,-5.8896,-5.8949,-5.9033,-5.9027,-5.911,-5.9125,-5.9153,-5.9207,-5.9183,-5.9234,-5.9227,-5.9278,-5.9276,-5.9357,-5.9369,-5.9372,-5.9371,-5.9375,-5.9375,-5.9393,-5.9385,-5.9364,-5.9363,-5.9362,-5.9361,0,-5.8949,-5.8957,-5.9048,-5.9082,-5.9092,-5.9153,-5.918,-5.923,-5.9237,-5.9306,-5.9321,-5.9332,-5.9391,-5.9393,-5.9459,-5.9457,-5.9556,-5.9544,-5.9545,-5.9543,-5.9609,-5.9603,-5.9818,-5.9847,-5.9656,-5.9658,-5.9659,0,-5.9041,-5.91,-5.914,-5.9176,-5.9198,-5.9256,-5.929,-5.9287,-5.9324,-5.9369,-5.9413,-5.947,-5.9515,-5.961,-5.9623,-5.9674,-5.9664,-5.9736,-5.9671,-5.9674,-5.9666,-5.9663,-5.9669,-5.9749,-5.9751,-5.9753,-5.9754,0,-5.9204,-5.9205,-5.9257,-5.9312,-5.9355,-5.9396,-5.9435,-5.9465,-5.9466,-5.9508,-5.9569,-5.9605,-5.9675,-5.9731,-5.9781,-5.9799,-5.9777,-5.9775,-5.9792,-5.9797,-5.9796,-5.9799,-5.9581,-5.9769,-5.9768,-5.9767,-5.9766,-5.9765,-5.9321,-5.9372,-5.941,-5.9469,-5.9498,-5.9536,-5.9584,-5.9599,-5.9651,-5.9709,-5.9703,-5.9771,-5.9805,-5.987,-5.9892,-5.9945,-5.992,-5.9945,-5.9952,-5.9958,-5.9966,-5.9788,-5.9954,-5.9953,-5.9953,-5.9952,-5.9952,0,-5.9483,-5.9507,-5.9561,-5.9618,-5.9665,-5.9642,-5.9684,-5.9724,-5.9785,-5.982,-5.9866,-5.9937,-5.9992,-6.0011,-6.0064,-6.0103,-6.0094,-6.0117,-6.0114,-6.0119,-5.9985,-5.9965,-6.0123,-6.0123,-6.0123,-6.0123,-6.0123,-6.0123,-5.9573,-5.966,-5.9666,-5.9766,-5.9788,-5.9857,-5.9883,-5.9917,-5.9945,-6.0026,-6.0073,-6.0085,-6.0113,-6.0169,-6.0219,-6.0223,-6.0244,-6.0271,-6.0271,-6.0145,-6.0128,-6.0112,-6.0093,-6.0276,-6.0276,-6.0401,-6.0402,-6.0403]}]]